This demonstration page uses our WeatherBlox Daily Observations layout. Learn more.

Left ArrowRight Arrow

38.80484, -77.04692

Hourly Observations for December 30, 2020

Temp ( °F °C ) Dew Point ( °F °C ) Humidity (%) Winds ( mph kmh ) Pressure ( in mb ) Visibility ( mi km ) Precip ( " mm )
12:52 am 00:52 Mostly Cloudy 34 1.1 18 -7.8 52 52 NNE 6 9 30.59 1036 10 16 N/A
1:52 am 01:52 Cloudy 33 0.6 19 -7.2 56 56 ENE 6 9 30.58 1035 10 16 N/A
2:52 am 02:52 Mostly Cloudy 32 undefined 19 -7.2 59 59 N N/A 30.56 1035 10 16 N/A
3:52 am 03:52 Cloudy 34 1.1 19 -7.2 54 54 N N/A 30.55 1034 10 16 N/A
4:52 am 04:52 Clear 33 0.6 20 -6.7 58 58 S 5 7 30.53 1034 10 16 N/A
5:52 am 05:52 Cloudy 33 0.6 21 -6.1 61 61 SSW 6 9 30.53 1034 10 16 N/A
6:52 am 06:52 Mostly Cloudy 32 undefined 21 -6.1 64 64 SSW 7 11 30.53 1034 10 16 N/A
7:52 am 07:52 Mostly Cloudy 33 0.6 21 -6.1 61 61 S 10 17 30.52 1034 10 16 N/A
8:52 am 08:52 Mostly Cloudy 34 1.1 21 -6.1 59 59 S 7 11 30.52 1034 10 16 N/A
9:52 am 09:52 Mostly Cloudy 37 2.8 21 -6.1 52 52 S 13 20 30.50 1033 10 16 N/A
10:52 am 10:52 Mostly Cloudy 39 3.9 21 -6.1 48 48 SSW 13 20 30.48 1032 10 16 N/A
11:52 am 11:52 Mostly Cloudy 41 5 20 -6.7 43 43 S 15 24 30.42 1030 10 16 N/A
12:52 pm 12:52 Mostly Cloudy 42 5.6 19 -7.2 40 40 SSW 16 26 30.35 1028 10 16 N/A
1:52 pm 13:52 Mostly Cloudy 44 6.7 24 -4.4 45 45 S 8 13 30.33 1027 10 16 N/A
2:52 pm 14:52 Mostly Cloudy 45 7.2 23 -5 42 42 S 14 22 30.29 1026 10 16 N/A
3:52 pm 15:52 Mostly Cloudy 45 7.2 22 -5.6 40 40 SSW 17 28 30.28 1025 10 16 N/A
4:52 pm 16:52 Mostly Cloudy 44 6.7 24 -4.4 45 45 S 13 20 30.25 1024 10 16 N/A
5:52 pm 17:52 Mostly Cloudy 43 6.1 26 -3.3 51 51 S 8 13 30.23 1024 10 16 N/A
6:52 pm 18:52 Mostly Cloudy 42 5.6 30 -1.1 62 62 S 10 17 30.19 1023 10 16 N/A
7:52 pm 19:52 Mostly Cloudy 45 7.2 25 -3.9 46 46 S 15 24 30.16 1022 10 16 N/A
8:52 pm 20:52 Mostly Cloudy 45 7.2 26 -3.3 48 48 SSW 15 24 30.14 1021 10 16 N/A
9:11 pm 21:11 Mostly Cloudy 46 7.8 26 -3.3 46 46 SSW 14 22 30.15 1021 10 16 N/A
9:30 pm 21:30 Cloudy 46 7.8 27 -2.8 47 47 SSW 14 22 30.14 1021 10 16 N/A
9:36 pm 21:36 Cloudy 46 7.8 27 -2.8 47 47 SSW 13 20 30.14 1021 10 16 N/A
9:46 pm 21:46 Cloudy 46 8 27 -3 46 46 SSW 14 22 30.14 1021 10 16 N/A
9:52 pm 21:52 Cloudy 46 7.8 28 -2.2 50 50 SSW 16 26 30.13 1020 10 16 N/A
10:05 pm 22:05 Cloudy 46 7.8 29 -1.7 51 51 S 16 26 30.13 1020 10 16 N/A
10:52 pm 22:52 Cloudy 46 7.8 38 3.3 73 73 S 18 30 30.10 1019 10 16 N/A
11:52 pm 23:52 Cloudy 46 7.8 39 3.9 77 77 S 17 28 30.08 1019 10 16 N/A

Powered by AerisWeather